[[{"header":{"parameterUnit":"m.s-1","parameterCategory":1,"la1":30.2991,"la2":30.254,"lo1":-89.0895,"lo2":-89.0444,"dy":0.0017,"dx":0.0017,"nx":28,"ny":28,"refTime":"2023-08-14T09:00:00:Z","depth":0,"parameterNumber":2,"parameterNumberName":"U-component_of_WINDS"},"data":[0,0,0,0,0,0,0,0,0,0,0,0,0,0,0,0,0,0,0,0,0,0,0,0,0,0,0,0,0,0,0,0,0,0,0,0,0,0,0,0,0,0,0,0,0,0,0,0,0,0,0,0,0,0,0,0,0,0,0.8444,0.8445,0,0.8571,0.8573,0.8574,0.8624,0.8624,0.8623,0.8623,0.8752,0.8756,0.876,0,0,0,0,0,0,0,0,0,0,0,0,0,0.8242,0.8245,0.8444,0.8446,0.8447,0.8571,0.8573,0.8575,0.8624,0.8624,0.8623,0.8623,0.8751,0.8755,0.876,0,0,0,0,0,0,0,0,0,0,0,0,0,0.8345,0.8246,0.8444,0.8487,0.8492,0.8571,0.8573,0.8575,0.8624,0.8624,0.8623,0.8623,0.8749,0.8755,0.8761,0.8806,0,0,0.8778,0.878,0,0,0,0,0,0,0,0,0.8339,0.8353,0.8479,0.8484,0.849,0.8581,0.8549,0.8652,0.8624,0.8574,0.8623,0.8622,0.8696,0.8706,0.8731,0.8812,0.8817,0.8778,0.8782,0.8784,0.8786,0,0,0,0,0,0,0,0.8332,0.8347,0.8494,0.8481,0.8487,0.8499,0.8513,0.8569,0.8636,0.8578,0.8582,0.8597,0.8699,0.8725,0.8734,0.8819,0.8778,0.8783,0.8787,0.8789,0.8943,0.8944,0,0,0,0,0,0,0.8318,0.8341,0.849,0.8498,0.8412,0.8503,0.8519,0.8552,0.8636,0.8648,0.8597,0.8598,0.8716,0.8727,0.8739,0.8797,0.8784,0.8789,0.8793,0.8942,0.8943,0.8944,0,0,0,0,0,0,0.8313,0.8331,0.8485,0.8421,0.8441,0.8507,0.8544,0.8555,0.8582,0.865,0.8662,0.8612,0.8716,0.8731,0.8789,0.8802,0.8792,0.8797,0.8941,0.8942,0.8943,0.8913,0,0,0,0,0,0,0.8307,0.8329,0.8347,0.8421,0.8445,0.8533,0.8545,0.8558,0.8592,0.8595,0.8667,0.8678,0.8717,0.878,0.8794,0.881,0.8801,0.894,0.8942,0.8943,0.8913,0.8913,0.8913,0,0,0,0,0,0.83,0.8333,0.8348,0.8366,0.8469,0.8534,0.8547,0.8591,0.8592,0.8611,0.8655,0.8676,0.8798,0.8785,0.8802,0.8819,0.894,0.8941,0.8943,0.8913,0.8913,0.8913,0,0,0,0,0,0,0.8259,0.8344,0.8361,0.8419,0.8469,0.8542,0.8567,0.8589,0.864,0.864,0.8692,0.8708,0.8761,0.8796,0.878,0.8867,0.887,0.8875,0.8842,0.8842,0.8842,0.8833,0.8806,0,0,0,0,0,0.8257,0.8303,0.8374,0.8419,0.8443,0.8501,0.8531,0.856,0.8613,0.8635,0.8682,0.8733,0.8783,0.8815,0.8864,0.8918,0.8934,0.8938,0.8938,0.8937,0.8941,0.8972,0.8974,0.8949,0.8949,0.8949,0,0,0.8253,0.8305,0.8331,0.8412,0.8454,0.85,0.8518,0.8566,0.8601,0.8642,0.8699,0.8736,0.8796,0.8852,0.8879,0.8882,0.8952,0.894,0.8939,0.8943,0.8974,0.8976,0.8978,0.895,0.895,0.895,0,0,0.8268,0.8313,0.8355,0.8396,0.846,0.8498,0.8508,0.8578,0.8604,0.8662,0.8694,0.8735,0.882,0.8862,0.8894,0.8925,0.8946,0.8939,0.8938,0.8967,0.8969,0.8971,0.8982,0.8985,0.8943,0.8943,0.8943,0,0.8255,0.8327,0.8373,0.842,0.8454,0.8494,0.8536,0.8574,0.865,0.8673,0.8676,0.8783,0.8826,0.8892,0.8899,0.8924,0.8937,0.8931,0.8965,0.8968,0.897,0.8981,0.8985,0.8941,0.8941,0.8942,0.8942,0,0.8307,0.8356,0.8382,0.8455,0.8492,0.8536,0.8589,0.8621,0.8647,0.8684,0.8742,0.8796,0.8856,0.8874,0.89,0.8944,0.8944,0.8955,0.896,0.8971,0.8982,0.8986,0.894,0.894,0.894,0.8941,0,0,0.83,0.8399,0.8407,0.8441,0.8514,0.8552,0.8597,0.8657,0.8684,0.8735,0.8774,0.8844,0.8855,0.8892,0.8922,0.8948,0.8968,0.8957,0.8959,0.8956,0.9019,0.901,0.9014,0.8983,0.8984,0.8985,0.9014,0,0.8326,0.841,0.8453,0.8518,0.8563,0.8601,0.8641,0.8689,0.8725,0.8768,0.8808,0.8857,0.8868,0.889,0.8917,0.896,0.8981,0.8959,0.9019,0.9021,0.9003,0.902,0.901,0.9035,0.9019,0.9019,0.902,0,0.8367,0.8418,0.8487,0.8555,0.8576,0.861,0.8668,0.8709,0.8765,0.8789,0.8829,0.8859,0.8908,0.8909,0.8976,0.896,0.8987,0.9012,0.9014,0.9021,0.9021,0.9027,0.9044,0.9048,0.9027,0.9027,0.9026,0,0.8354,0.8441,0.8494,0.8521,0.8601,0.8625,0.8659,0.8714,0.8747,0.8797,0.8819,0.8874,0.8904,0.8946,0.899,0.8987,0.9053,0.9058,0.9074,0.9073,0.9086,0.9085,0.9108,0.9104,0.9104,0.9104,0.9104,0,0.8378,0.8419,0.8489,0.8522,0.8569,0.8617,0.8662,0.8699,0.8748,0.8787,0.8823,0.886,0.8915,0.8959,0.8993,0.9043,0.9057,0.9077,0.9086,0.9074,0.9071,0.9093,0.9092,0.9105,0.9105,0.9104,0.9104,0,0.8373,0.8421,0.8481,0.8552,0.8571,0.8602,0.8662,0.8695,0.8732,0.8782,0.8797,0.8856,0.8908,0.8956,0.9026,0.9049,0.91,0.9111,0.9081,0.9086,0.9099,0.9097,0.9137,0.9144,0.9135,0.9135,0.9135,0,0.8384,0.8417,0.8491,0.8521,0.8555,0.8602,0.8636,0.8684,0.8718,0.8783,0.8808,0.8863,0.891,0.8992,0.9041,0.9094,0.9107,0.9117,0.9115,0.9102,0.9107,0.9104,0.9107,0.9116,0.9116,0.9116,0.9116,0,0.84,0.8422,0.847,0.8527,0.8566,0.8613,0.866,0.8682,0.874,0.8776,0.883,0.8867,0.8938,0.8992,0.9051,0.9086,0.911,0.9116,0.9123,0.9111,0.9092,0.9102,0.908,0.9115,0.9115,0.9115,0.9115,0.9115,0.8404,0.8434,0.8491,0.8543,0.8584,0.8628,0.8662,0.8704,0.875,0.8812,0.8838,0.8893,0.8947,0.9029,0.9063,0.9107,0.9112,0.9121,0.9124,0.9125,0.9123,0.9085,0.9118,0.9118,0.9118,0.9118,0.9118,0,0.8421,0.8459,0.8507,0.8572,0.8613,0.8633,0.8687,0.8719,0.8767,0.8816,0.8862,0.8924,0.8976,0.9029,0.9084,0.9109,0.9122,0.9122,0.912,0.9128,0.9115,0.9104,0.9111,0.9111,0.9111,0.9111,0.9111,0.9111,0.8435,0.8487,0.8516,0.8589,0.8628,0.8682,0.8711,0.8751,0.879,0.8858,0.8902,0.8936,0.8987,0.9046,0.9095,0.9109,0.9127,0.9125,0.9142,0.9129,0.9129,0.9129,0.9119,0.9128,0.9128,0.9151,0.9151,0.9151]},{"header":{"parameterUnit":"m.s-1","parameterCategory":1,"la1":30.2991,"la2":30.254,"lo1":-89.0895,"lo2":-89.0444,"dy":0.0017,"dx":0.0017,"nx":28,"ny":28,"refTime":"2023-08-14T09:00:00:Z","depth":0,"parameterNumber":3,"parameterNumberName":"V-component_of_WINDS"},"data":[0,0,0,0,0,0,0,0,0,0,0,0,0,0,0,0,0,0,0,0,0,0,0,0,0,0,0,0,0,0,0,0,0,0,0,0,0,0,0,0,0,0,0,0,0,0,0,0,0,0,0,0,0,0,0,0,0,0,5.875,5.8749,0,5.871,5.8709,5.8709,5.862,5.8618,5.8616,5.8615,5.8576,5.8577,5.8578,0,0,0,0,0,0,0,0,0,0,0,0,0,5.8753,5.8753,5.875,5.8749,5.8749,5.871,5.8709,5.8709,5.862,5.8618,5.8616,5.8614,5.8576,5.8577,5.8578,0,0,0,0,0,0,0,0,0,0,0,0,0,5.8736,5.8754,5.875,5.87,5.8695,5.871,5.8709,5.8708,5.8621,5.8618,5.8615,5.8613,5.8576,5.8577,5.8578,5.8639,0,0,5.8581,5.8581,0,0,0,0,0,0,0,0,5.8737,5.8736,5.8708,5.8703,5.8698,5.8667,5.8696,5.8685,5.8621,5.8649,5.8615,5.8611,5.8609,5.8607,5.8605,5.8637,5.8635,5.8581,5.8581,5.8582,5.8582,0,0,0,0,0,0,0,5.8739,5.8737,5.8734,5.8708,5.8702,5.8681,5.8675,5.8694,5.8645,5.8646,5.864,5.8636,5.8606,5.8605,5.8604,5.8635,5.8581,5.8582,5.8582,5.8583,5.8714,5.8717,0,0,0,0,0,0,5.8747,5.8739,5.8735,5.8733,5.8711,5.8683,5.8677,5.868,5.8644,5.8636,5.8639,5.8632,5.8604,5.8603,5.8602,5.8671,5.8582,5.8583,5.8583,5.8711,5.8714,5.8718,0,0,0,0,0,0,5.8747,5.8747,5.8737,5.8734,5.8731,5.8685,5.869,5.868,5.8679,5.8638,5.8629,5.8646,5.8602,5.8601,5.863,5.8668,5.8583,5.8584,5.8708,5.8712,5.8716,5.8809,0,0,0,0,0,0,5.8747,5.8748,5.877,5.8735,5.8732,5.8765,5.8692,5.8682,5.8681,5.8672,5.8643,5.8636,5.86,5.8629,5.8631,5.8668,5.8585,5.8704,5.871,5.8715,5.8802,5.8816,5.8827,0,0,0,0,0,5.8748,5.8798,5.8771,5.8771,5.8758,5.8767,5.8765,5.8722,5.8684,5.8706,5.868,5.8637,5.8664,5.8633,5.8634,5.8672,5.8701,5.8708,5.8714,5.8796,5.8813,5.8827,0,0,0,0,0,0,5.8839,5.8792,5.8762,5.8802,5.8789,5.8752,5.8778,5.8741,5.8738,5.873,5.8678,5.8672,5.8708,5.8693,5.8659,5.8729,5.8676,5.8683,5.8738,5.8753,5.8765,5.8768,5.8586,0,0,0,0,0,5.8864,5.8874,5.8833,5.8873,5.8867,5.8825,5.8827,5.8795,5.8779,5.8773,5.8749,5.8737,5.8742,5.8747,5.875,5.88,5.8792,5.8827,5.8839,5.885,5.8856,5.8882,5.8896,5.8739,5.8739,5.8739,0,0,5.8915,5.8891,5.8901,5.889,5.8876,5.8889,5.882,5.8837,5.8846,5.8776,5.8801,5.8784,5.8766,5.8806,5.8823,5.8795,5.8898,5.8858,5.8867,5.8868,5.889,5.8905,5.8918,5.8743,5.8742,5.8742,0,0,5.9014,5.8997,5.9028,5.9015,5.8994,5.8965,5.8973,5.8942,5.8927,5.8952,5.89,5.891,5.8921,5.891,5.8907,5.9003,5.8963,5.9006,5.9072,5.9097,5.9109,5.912,5.9154,5.9167,5.9013,5.9013,5.9013,0,5.908,5.9096,5.9049,5.9068,5.9065,5.9002,5.9034,5.9024,5.9006,5.9006,5.8975,5.8987,5.8971,5.9007,5.9031,5.903,5.9037,5.9008,5.9111,5.9122,5.9131,5.9163,5.9176,5.9018,5.9018,5.9017,5.9017,0,5.9179,5.9191,5.9219,5.9202,5.9202,5.9228,5.9185,5.9191,5.9159,5.9134,5.9161,5.9139,5.9137,5.9143,5.9113,5.9176,5.9159,5.9121,5.9065,5.9152,5.9181,5.9193,5.9026,5.9024,5.9022,5.9021,0,0,5.9333,5.929,5.9301,5.9292,5.9265,5.9274,5.9298,5.9294,5.93,5.9291,5.9309,5.932,5.9284,5.928,5.9248,5.927,5.9348,5.9229,5.9228,5.9251,5.9416,5.9444,5.9459,5.9321,5.9324,5.9325,5.9417,0,5.9426,5.9461,5.942,5.9465,5.9475,5.9416,5.9436,5.9423,5.94,5.9407,5.9382,5.939,5.9343,5.934,5.9359,5.9334,5.938,5.9327,5.9338,5.9339,5.9343,5.9474,5.9504,5.9591,5.9428,5.943,5.9431,0,5.9538,5.9533,5.9578,5.9549,5.9551,5.957,5.9564,5.9571,5.9554,5.9536,5.9532,5.9493,5.9515,5.9462,5.9491,5.9456,5.9459,5.9447,5.9449,5.9448,5.939,5.9476,5.9618,5.9631,5.9449,5.9447,5.9446,0,5.9646,5.965,5.9678,5.9672,5.9639,5.9653,5.964,5.9621,5.9621,5.9616,5.9616,5.9615,5.9613,5.9613,5.9575,5.9541,5.9609,5.9553,5.9595,5.9596,5.9611,5.9611,5.9756,5.9615,5.9614,5.9614,5.9614,0,5.9753,5.9783,5.9725,5.9742,5.9775,5.9727,5.9761,5.9742,5.9725,5.9738,5.9688,5.9701,5.9651,5.9659,5.963,5.9658,5.9659,5.9645,5.9637,5.9649,5.9651,5.9649,5.9642,5.9618,5.9617,5.9616,5.9616,0,5.9878,5.984,5.9867,5.9832,5.9825,5.985,5.9821,5.9836,5.981,5.9827,5.9829,5.9789,5.9796,5.9759,5.976,5.974,5.9783,5.9765,5.9788,5.9782,5.9826,5.9822,5.9974,5.9991,5.984,5.9842,5.9843,0,5.9948,5.997,5.9938,5.9942,5.9931,5.994,5.994,5.9895,5.9897,5.988,5.9898,5.9901,5.99,5.9915,5.9886,5.9887,5.9868,5.9921,5.9868,5.988,5.9868,5.9867,5.9869,5.9932,5.9934,5.9936,5.9937,0,6.0077,6.0057,6.0059,6.0055,6.0057,6.0051,6.0043,6.005,6.0001,6.0006,6.0012,6.0012,6.0013,6.0017,6.0012,5.9999,5.996,5.9954,5.9964,5.9976,5.9988,5.9982,5.9817,5.9951,5.9949,5.9948,5.9948,5.9947,6.0176,6.0193,6.0173,6.0177,6.0165,6.0158,6.0171,6.0146,6.0151,6.0147,6.012,6.0132,6.0115,6.0104,6.0095,6.0104,6.0079,6.0093,6.0096,6.01,6.0108,5.9988,6.0103,6.0103,6.0102,6.0102,6.0101,0,6.0302,6.0286,6.029,6.0279,6.0283,6.0245,6.0234,6.024,6.025,6.0238,6.0238,6.0246,6.0249,6.0222,6.0222,6.0234,6.0216,6.0236,6.0234,6.0231,6.013,6.0122,6.025,6.025,6.025,6.025,6.025,6.025,6.0367,6.0393,6.0372,6.0392,6.0376,6.0386,6.0383,6.0376,6.0366,6.0377,6.0379,6.036,6.0342,6.034,6.0342,6.0334,6.0336,6.0361,6.0347,6.0253,6.0239,6.0225,6.0216,6.0362,6.0362,6.0447,6.0448,6.0449]}]]